Etusivu
METAR-TAF:

METAR-TAF

Lentoasemat :

Rome State Airport

Rome, Oregon, Yhdysvallat

Leveyspiiri: 42-35-26N, Pituuspiiri: 117-51-52W, korkeus merenpinnasta: 1234 m

Tämänhetkinen sää

Tämä raportti tehtiin 1 tunti ja 9 minuuttia sitten, kello 15.52 UTC
Tuuli 4 kn lännestä
Lämpötila 11°C
Kosteus 19%
Ilmanpaine 1019 hPa

METAR: KREO 301552Z AUTO 27004KT 11/M12 A3010 RMK AO1 SLP183 T01061117

Aika: 11:01 (17:01 UTC)


TAF: puuttuu

Säähavainnot ja -ennusteet yli 4000 lentoasemalta (METAR- ja TAF-raportit).

Käytössä olevat sääasemat on merkitty karttaan keltaisilla ja punaisilla pisteillä.

Aseta hiiri pisteen päälle nähdäksesi sääaseman nimen.

Klikkaa sitten nähdäksesi säähavainnot ja -ennusteet.

Kartan vaihtaminen: klikkaa mustalla rastilla varustettuja vihreitä pisteitä, niin voit zoomata sisään; viivalla varustettua vihreää pistettä, niin voit zoomata ulos tai vihreitä nuolia, niin pääset viereisille kartoille.


METAR-TAF: